Location: Newark
(8.3333°N, 39.1667°E)
Time: 02:23:32
(UTC+00:00)

Falcon 9 debris - Pass Details

Date: 02 September 2019
Orbit: 432 x 437 km, 53.0° (Epoch: 15 September)

Event Time Altitude Azimuth Distance (km) Brightness Sun altitude
Exits shadow 02:29:57 - 207° (SSW) 1,795 5.9 -11.9°
Reaches altitude 10° 02:30:37 10° 205° (SSW) 1,531 5.6 -11.7°
Maximum altitude 02:34:01 62° 124° (SE) 490 3.6 -10.9°
Drops below altitude 10° 02:37:25 10° 43° (NE) 1,532 6.7 -10.0°
Sets 02:39:32 0° 40° (NE) 2,399 7.7 -9.5°
